When you browse on this site, cookies collect data to enhance your experience and personalize the content and advertising you see.
Visit our Privacy Policy to learn more. By continuing to use the site, you agree to this use of cookies and data.
  • In Czech Republic
  • List of Countries
  • For 7 days
  • Water Temperature
  • Weather Map
  • Weather Widgets
  • user-avatar
    Login

    Hourly Weather Bregenz

    Today, 21 August, Wednesday

    Time Temperature Precipitation Wind Pressure Humidity
    00:00 +8°C° 2.6 mm 1 mps 652 mmHg 97%
    01:00 +8°C° 0 mm 1 mps 653 mmHg 97%
    02:00 +8°C° 0.3 mm 1 mps 652 mmHg 97%
    03:00 +8°C° 0.3 mm 1 mps 652 mmHg 97%
    04:00 +7°C° 0.3 mm 0 mps 652 mmHg 97%
    05:00 +7°C° 0 mm 0 mps 652 mmHg 97%
    06:00 +8°C° 0 mm 1 mps 652 mmHg 97%
    07:00 +8°C° 0 mm 1 mps 652 mmHg 96%
    08:00 +10°C° 0 mm 1 mps 652 mmHg 91%
    09:00 +11°C° 0 mm 1 mps 653 mmHg 86%
    10:00 +12°C° 0 mm 1 mps 653 mmHg 80%
    11:00 +14°C° 0 mm 1 mps 653 mmHg 75%
    12:00 +15°C° 0 mm 2 mps 653 mmHg 71%
    13:00 +16°C° 0 mm 2 mps 653 mmHg 66%
    14:00 +16°C° 0 mm 2 mps 653 mmHg 67%
    15:00 +16°C° 0 mm 3 mps 653 mmHg 68%
    16:00 +16°C° 0 mm 3 mps 653 mmHg 69%
    17:00 +14°C° 0 mm 3 mps 653 mmHg 75%
    18:00 +13°C° 0 mm 2 mps 652 mmHg 82%
    19:00 +12°C° 0 mm 2 mps 652 mmHg 88%
    20:00 +11°C° 0.1 mm 1 mps 652 mmHg 90%
    21:00 +11°C° 0.1 mm 1 mps 652 mmHg 92%
    22:00 +10°C° 0.1 mm 1 mps 651 mmHg 93%
    23:00 +10°C° 0 mm 1 mps 651 mmHg 93%

    Tomorrow, 22 August, Thursday

    Time Temperature Precipitation Wind Pressure Humidity
    00:00 +10°C° 0 mm 1 mps 651 mmHg 93%
    01:00 +9°C° 0 mm 0 mps 651 mmHg 92%
    02:00 +9°C° 0 mm 0 mps 651 mmHg 93%
    03:00 +9°C° 0 mm 1 mps 651 mmHg 93%
    04:00 +9°C° 0 mm 1 mps 650 mmHg 93%
    05:00 +9°C° 0 mm 0 mps 651 mmHg 92%
    06:00 +9°C° 0 mm 0 mps 651 mmHg 91%
    07:00 +10°C° 0 mm 0 mps 651 mmHg 90%
    08:00 +12°C° 0 mm 0 mps 652 mmHg 85%
    09:00 +14°C° 0 mm 1 mps 652 mmHg 79%
    10:00 +16°C° 0 mm 1 mps 653 mmHg 73%
    11:00 +16°C° 0.1 mm 1 mps 653 mmHg 72%
    12:00 +17°C° 0.1 mm 2 mps 653 mmHg 71%
    13:00 +18°C° 0.1 mm 2 mps 653 mmHg 70%
    14:00 +17°C° 0.2 mm 2 mps 653 mmHg 72%
    15:00 +17°C° 0.2 mm 2 mps 653 mmHg 74%
    16:00 +17°C° 0.2 mm 2 mps 653 mmHg 76%
    17:00 +16°C° 0.1 mm 1 mps 652 mmHg 82%
    18:00 +15°C° 0.1 mm 1 mps 652 mmHg 87%
    19:00 +14°C° 0.1 mm 1 mps 652 mmHg 93%
    20:00 +13°C° 0 mm 1 mps 652 mmHg 94%
    21:00 +12°C° 0 mm 0 mps 652 mmHg 94%
    22:00 +11°C° 0 mm 0 mps 652 mmHg 95%
    23:00 +11°C° 0 mm 0 mps 652 mmHg 95%

    Day after tomorrow, 23 August, Friday

    Time Temperature Precipitation Wind Pressure Humidity
    00:00 +10°C° 0 mm 0 mps 652 mmHg 95%
    01:00 +11°C° 0 mm 1 mps 651 mmHg 95%
    02:00 +11°C° 0 mm 1 mps 651 mmHg 94%
    03:00 +11°C° 0 mm 1 mps 651 mmHg 93%
    04:00 +11°C° 0 mm 1 mps 651 mmHg 93%
    05:00 +11°C° 0 mm 1 mps 651 mmHg 92%
    06:00 +11°C° 0 mm 0 mps 651 mmHg 91%
    07:00 +11°C° 0 mm 0 mps 652 mmHg 89%
    08:00 +14°C° 0 mm 1 mps 652 mmHg 84%
    09:00 +15°C° 0 mm 1 mps 652 mmHg 79%
    10:00 +18°C° 0 mm 1 mps 653 mmHg 73%
    11:00 +18°C° 0.1 mm 1 mps 653 mmHg 72%
    12:00 +19°C° 0.1 mm 1 mps 653 mmHg 71%
    13:00 +19°C° 0.1 mm 2 mps 653 mmHg 70%
    14:00 +19°C° 0.6 mm 2 mps 653 mmHg 72%
    15:00 +19°C° 0.6 mm 2 mps 652 mmHg 74%
    16:00 +19°C° 0.6 mm 2 mps 652 mmHg 76%
    17:00 +18°C° 0.4 mm 1 mps 652 mmHg 82%
    18:00 +16°C° 0.4 mm 1 mps 652 mmHg 88%
    19:00 +15°C° 0.4 mm 1 mps 651 mmHg 93%
    20:00 +15°C° 0.2 mm 1 mps 651 mmHg 94%
    21:00 +14°C° 0.2 mm 1 mps 651 mmHg 94%
    22:00 +12°C° 0.2 mm 0 mps 651 mmHg 95%
    23:00 +12°C° 0 mm 0 mps 651 mmHg 95%

    24 August, Saturday

    Time Temperature Precipitation Wind Pressure Humidity
    00:00 +12°C° 0 mm 1 mps 651 mmHg 94%
    01:00 +12°C° 0 mm 1 mps 650 mmHg 94%
    02:00 +12°C° 0 mm 1 mps 650 mmHg 94%
    03:00 +11°C° 0 mm 1 mps 650 mmHg 93%
    04:00 +11°C° 0 mm 1 mps 650 mmHg 93%
    05:00 +12°C° 0 mm 1 mps 650 mmHg 92%
    06:00 +12°C° 0 mm 1 mps 650 mmHg 91%
    07:00 +13°C° 0 mm 1 mps 650 mmHg 89%
    08:00 +15°C° 0 mm 1 mps 651 mmHg 82%
    09:00 +18°C° 0 mm 1 mps 651 mmHg 75%
    10:00 +20°C° 0 mm 1 mps 652 mmHg 68%
    11:00 +21°C° 0.1 mm 1 mps 652 mmHg 66%
    12:00 +21°C° 0.1 mm 1 mps 652 mmHg 65%
    13:00 +21°C° 0.1 mm 2 mps 652 mmHg 63%
    14:00 +20°C° 0.8 mm 2 mps 651 mmHg 68%
    15:00 +20°C° 0.8 mm 2 mps 651 mmHg 73%
    16:00 +20°C° 0.8 mm 2 mps 651 mmHg 77%
    17:00 +19°C° 0.7 mm 1 mps 650 mmHg 82%
    18:00 +18°C° 0.7 mm 1 mps 650 mmHg 87%
    19:00 +16°C° 0.7 mm 1 mps 650 mmHg 92%
    20:00 +15°C° 0.1 mm 1 mps 650 mmHg 92%
    21:00 +14°C° 0.1 mm 1 mps 650 mmHg 92%
    22:00 +13°C° 0.1 mm 1 mps 650 mmHg 92%
    23:00 +13°C° 0 mm 1 mps 649 mmHg 92%

    25 August, Sunday

    Time Temperature Precipitation Wind Pressure Humidity
    00:00 +13°C° 0 mm 1 mps 649 mmHg 91%
    01:00 +12°C° 0 mm 1 mps 649 mmHg 91%
    02:00 +12°C° 0 mm 1 mps 649 mmHg 91%
    03:00 +12°C° 0 mm 1 mps 649 mmHg 90%
    04:00 +12°C° 0 mm 1 mps 648 mmHg 90%
    05:00 +12°C° 0 mm 1 mps 649 mmHg 89%
    06:00 +13°C° 0 mm 1 mps 649 mmHg 88%
    07:00 +14°C° 0 mm 1 mps 649 mmHg 87%
    08:00 +16°C° 0 mm 1 mps 650 mmHg 79%
    09:00 +19°C° 0 mm 1 mps 651 mmHg 71%
    10:00 +21°C° 0 mm 1 mps 651 mmHg 63%
    11:00 +22°C° 0.2 mm 1 mps 651 mmHg 62%
    12:00 +22°C° 0.2 mm 1 mps 651 mmHg 60%
    13:00 +23°C° 0.2 mm 2 mps 651 mmHg 58%
    14:00 +23°C° 0.7 mm 1 mps 651 mmHg 60%
    15:00 +22°C° 0.7 mm 1 mps 651 mmHg 62%
    16:00 +22°C° 0.7 mm 1 mps 650 mmHg 63%
    17:00 +20°C° 0.4 mm 1 mps 650 mmHg 68%
    18:00 +19°C° 0.4 mm 1 mps 650 mmHg 73%
    19:00 +15°C° 0.4 mm 0 mps 649 mmHg 78%
    20:00 +15°C° 0 mm 1 mps 649 mmHg 78%
    21:00 +14°C° 0 mm 1 mps 649 mmHg 79%
    22:00 +13°C° 0 mm 1 mps 649 mmHg 79%
    23:00 +13°C° 0 mm 1 mps 649 mmHg 78%

    26 August, Monday

    Time Temperature Precipitation Wind Pressure Humidity
    00:00 +13°C° 0 mm 1 mps 649 mmHg 77%
    01:00 +12°C° 0 mm 1 mps 649 mmHg 77%
    02:00 +12°C° 0 mm 1 mps 649 mmHg 77%
    03:00 +12°C° 0 mm 1 mps 648 mmHg 76%
    04:00 +11°C° 0 mm 1 mps 648 mmHg 76%
    05:00 +12°C° 0 mm 1 mps 649 mmHg 76%
    06:00 +13°C° 0 mm 1 mps 649 mmHg 76%
    07:00 +13°C° 0 mm 1 mps 649 mmHg 75%
    08:00 +16°C° 0 mm 1 mps 650 mmHg 67%
    09:00 +19°C° 0 mm 1 mps 651 mmHg 59%
    10:00 +22°C° 0 mm 1 mps 652 mmHg 50%
    11:00 +22°C° 0 mm 1 mps 652 mmHg 48%
    12:00 +23°C° 0 mm 1 mps 652 mmHg 45%
    13:00 +24°C° 0 mm 2 mps 652 mmHg 43%
    14:00 +24°C° 0 mm 2 mps 652 mmHg 43%
    15:00 +24°C° 0 mm 1 mps 652 mmHg 44%
    16:00 +24°C° 0 mm 1 mps 652 mmHg 45%
    17:00 +21°C° 0 mm 1 mps 652 mmHg 52%
    18:00 +19°C° 0 mm 1 mps 651 mmHg 60%
    19:00 +16°C° 0 mm 1 mps 651 mmHg 67%
    20:00 +16°C° 0 mm 1 mps 651 mmHg 65%
    21:00 +15°C° 0 mm 2 mps 651 mmHg 62%
    22:00 +14°C° 0 mm 2 mps 651 mmHg 60%
    23:00 +14°C° 0 mm 2 mps 651 mmHg 59%
    Show more